Time,TemperatureF,DewpointF,PressureIn,WindDirection,WindDirectionDegrees,WindSpeedMPH,WindSpeedGustMPH,Humidity,HourlyPrecipIn,Conditions,Clouds,dailyrainin,SoftwareType,DateUTC
2013-01-13 00:20:00,25.0,-99.9,-100.00,West,260,3.0,5.0,-999,-99.99,,,-99.99,,2013-01-13 08:20:00,
2013-01-13 00:22:00,24.0,-99.9,-100.00,West,263,6.0,8.0,-999,-99.99,,,-99.99,,2013-01-13 08:22:00,
2013-01-13 00:33:00,25.0,-99.9,-100.00,WSW,256,6.0,10.0,-999,-99.99,,,-99.99,,2013-01-13 08:33:00,
2013-01-13 00:42:00,25.0,-99.9,-100.00,WSW,256,6.0,10.0,-999,-99.99,,,-99.99,,2013-01-13 08:42:00,
2013-01-13 00:53:00,25.0,-99.9,-100.00,WSW,256,6.0,10.0,-999,-99.99,,,-99.99,,2013-01-13 08:53:00,
2013-01-13 01:02:00,25.0,-99.9,-100.00,West,260,3.0,5.0,-999,-99.99,,,-99.99,,2013-01-13 09:02:00,
2013-01-13 01:12:00,25.0,-99.9,-100.00,West,260,3.0,5.0,-999,-99.99,,,-99.99,,2013-01-13 09:12:00,
2013-01-13 01:32:00,23.0,-99.9,-100.00,WSW,245,3.0,8.0,-999,-99.99,,,-99.99,,2013-01-13 09:32:00,
2013-01-13 01:43:00,23.0,-99.9,-100.00,WSW,245,3.0,8.0,-999,-99.99,,,-99.99,,2013-01-13 09:43:00,
2013-01-13 01:53:00,23.0,-99.9,-100.00,WSW,245,3.0,8.0,-999,-99.99,,,-99.99,,2013-01-13 09:53:00,
2013-01-13 02:03:00,22.0,-99.9,-100.00,WSW,247,3.0,6.0,-999,-99.99,,,-99.99,,2013-01-13 10:03:00,
2013-01-13 02:10:00,24.0,-99.9,-100.00,West,269,6.0,8.0,-999,-99.99,,,-99.99,,2013-01-13 10:10:00,
2013-01-13 02:12:00,22.0,-99.9,-100.00,WSW,247,3.0,6.0,-999,-99.99,,,-99.99,,2013-01-13 10:12:00,
2013-01-13 02:22:00,22.0,-99.9,-100.00,WSW,253,5.0,7.0,-999,-99.99,,,-99.99,,2013-01-13 10:22:00,
2013-01-13 02:33:00,24.0,-99.9,-100.00,West,264,4.0,6.0,-999,-99.99,,,-99.99,,2013-01-13 10:33:00,
2013-01-13 02:42:00,24.0,-99.9,-100.00,West,264,4.0,6.0,-999,-99.99,,,-99.99,,2013-01-13 10:42:00,
2013-01-13 02:53:00,24.0,-99.9,-100.00,West,269,6.0,8.0,-999,-99.99,,,-99.99,,2013-01-13 10:53:00,
2013-01-13 03:02:00,24.0,-99.9,-100.00,West,269,6.0,8.0,-999,-99.99,,,-99.99,,2013-01-13 11:02:00,
2013-01-13 03:33:00,23.0,-99.9,-100.00,WNW,283,6.0,9.0,-999,-99.99,,,-99.99,,2013-01-13 11:33:00,
2013-01-13 03:43:00,23.0,-99.9,-100.00,WNW,283,6.0,9.0,-999,-99.99,,,-99.99,,2013-01-13 11:43:00,
2013-01-13 03:53:00,23.0,-99.9,-100.00,WNW,283,6.0,9.0,-999,-99.99,,,-99.99,,2013-01-13 11:53:00,
2013-01-13 04:33:00,22.0,-99.9,-100.00,West,260,6.0,6.0,-999,-99.99,,,-99.99,,2013-01-13 12:33:00,
2013-01-13 04:42:00,22.0,-99.9,-100.00,West,260,6.0,6.0,-999,-99.99,,,-99.99,,2013-01-13 12:42:00,
2013-01-13 04:53:00,23.0,-99.9,-100.00,West,274,7.0,7.0,-999,-99.99,,,-99.99,,2013-01-13 12:53:00,
2013-01-13 05:03:00,23.0,-99.9,-100.00,West,274,7.0,7.0,-999,-99.99,,,-99.99,,2013-01-13 13:03:00,
2013-01-13 05:22:00,21.0,-99.9,-100.00,WSW,251,5.0,9.0,-999,-99.99,,,-99.99,,2013-01-13 13:22:00,
2013-01-13 05:33:00,23.0,-99.9,-100.00,WSW,251,5.0,9.0,-999,-99.99,,,-99.99,,2013-01-13 13:33:00,
2013-01-13 05:43:00,23.0,-99.9,-100.00,WSW,251,5.0,9.0,-999,-99.99,,,-99.99,,2013-01-13 13:43:00,
2013-01-13 05:53:00,23.0,-99.9,-100.00,WSW,251,5.0,9.0,-999,-99.99,,,-99.99,,2013-01-13 13:53:00,
2013-01-13 06:33:00,22.0,-99.9,-100.00,WSW,238,4.0,4.0,-999,-99.99,,,-99.99,,2013-01-13 14:33:00,
2013-01-13 06:43:00,22.0,-99.9,-100.00,WSW,238,4.0,4.0,-999,-99.99,,,-99.99,,2013-01-13 14:43:00,
2013-01-13 06:53:00,22.0,-99.9,-100.00,WSW,238,4.0,4.0,-999,-99.99,,,-99.99,,2013-01-13 14:53:00,
2013-01-13 07:33:00,23.0,-99.9,-100.00,West,270,3.0,4.0,-999,-99.99,,,-99.99,,2013-01-13 15:33:00,
2013-01-13 07:43:00,23.0,-99.9,-100.00,West,270,3.0,4.0,-999,-99.99,,,-99.99,,2013-01-13 15:43:00,
2013-01-13 07:53:00,23.0,-99.9,-100.00,West,270,3.0,4.0,-999,-99.99,,,-99.99,,2013-01-13 15:53:00,
2013-01-13 08:34:00,24.0,-99.9,-100.00,WSW,250,2.0,5.0,-999,-99.99,,,-99.99,,2013-01-13 16:34:00,
2013-01-13 08:43:00,24.0,-99.9,-100.00,WSW,250,2.0,5.0,-999,-99.99,,,-99.99,,2013-01-13 16:43:00,
2013-01-13 08:53:00,24.0,-99.9,-100.00,WSW,250,2.0,5.0,-999,-99.99,,,-99.99,,2013-01-13 16:53:00,
2013-01-13 09:23:00,25.0,-99.9,-100.00,West,264,4.0,6.0,-999,-99.99,,,-99.99,,2013-01-13 17:23:00,
2013-01-13 09:33:00,25.0,-99.9,-100.00,WSW,244,5.0,5.0,-999,-99.99,,,-99.99,,2013-01-13 17:33:00,
2013-01-13 09:43:00,25.0,-99.9,-100.00,WSW,244,5.0,5.0,-999,-99.99,,,-99.99,,2013-01-13 17:43:00,
2013-01-13 09:53:00,24.0,-99.9,-100.00,SW,230,3.0,5.0,-999,-99.99,,,-99.99,,2013-01-13 17:53:00,
2013-01-13 10:23:00,26.0,-99.9,-100.00,West,265,4.0,5.0,-999,-99.99,,,-99.99,,2013-01-13 18:23:00,
2013-01-13 10:33:00,25.0,-99.9,-100.00,WSW,249,3.0,5.0,-999,-99.99,,,-99.99,,2013-01-13 18:33:00,
2013-01-13 10:43:00,25.0,-99.9,-100.00,WSW,249,3.0,5.0,-999,-99.99,,,-99.99,,2013-01-13 18:43:00,
2013-01-13 10:54:00,25.0,-99.9,-100.00,WSW,249,3.0,5.0,-999,-99.99,,,-99.99,,2013-01-13 18:54:00,
2013-01-13 11:00:00,26.0,-99.9,-100.00,West,281,1.0,4.0,-999,-99.99,,,-99.99,,2013-01-13 19:00:00,
2013-01-13 11:03:00,25.0,-99.9,-100.00,WSW,254,2.0,4.0,-999,-99.99,,,-99.99,,2013-01-13 19:03:00,
2013-01-13 11:12:00,25.0,-99.9,-100.00,WSW,254,2.0,4.0,-999,-99.99,,,-99.99,,2013-01-13 19:12:00,
2013-01-13 11:33:00,27.0,-99.9,-100.00,SW,215,2.0,4.0,-999,-99.99,,,-99.99,,2013-01-13 19:33:00,
2013-01-13 11:43:00,27.0,-99.9,-100.00,SW,215,2.0,4.0,-999,-99.99,,,-99.99,,2013-01-13 19:43:00,
2013-01-13 11:53:00,26.0,-99.9,-100.00,West,281,1.0,4.0,-999,-99.99,,,-99.99,,2013-01-13 19:53:00,
2013-01-13 12:23:00,27.0,-99.9,-100.00,NW,325,2.0,3.0,-999,-99.99,,,-99.99,,2013-01-13 20:23:00,
2013-01-13 12:33:00,29.0,-99.9,-100.00,North,6,0.0,1.0,-999,-99.99,,,-99.99,,2013-01-13 20:33:00,
2013-01-13 12:40:00,28.0,-99.9,-100.00,ENE,70,3.0,3.0,-999,-99.99,,,-99.99,,2013-01-13 20:40:00,
2013-01-13 12:43:00,29.0,-99.9,-100.00,North,6,0.0,1.0,-999,-99.99,,,-99.99,,2013-01-13 20:43:00,
2013-01-13 12:53:00,29.0,-99.9,-100.00,North,6,0.0,1.0,-999,-99.99,,,-99.99,,2013-01-13 20:53:00,
2013-01-13 13:10:00,30.0,-99.9,-100.00,NNE,25,1.0,4.0,-999,-99.99,,,-99.99,,2013-01-13 21:10:00,
2013-01-13 13:23:00,28.0,-99.9,-100.00,ENE,70,3.0,3.0,-999,-99.99,,,-99.99,,2013-01-13 21:23:00,
2013-01-13 13:33:00,28.0,-99.9,-100.00,ENE,70,3.0,3.0,-999,-99.99,,,-99.99,,2013-01-13 21:33:00,
2013-01-13 13:53:00,30.0,-99.9,-100.00,NNE,25,1.0,4.0,-999,-99.99,,,-99.99,,2013-01-13 21:53:00,
2013-01-13 14:03:00,30.0,-99.9,-100.00,NNE,25,1.0,4.0,-999,-99.99,,,-99.99,,2013-01-13 22:03:00,
2013-01-13 15:00:00,31.0,-99.9,-100.00,SE,141,2.0,4.0,-999,-99.99,,,-99.99,,2013-01-13 23:00:00,
2013-01-13 15:33:00,31.0,-99.9,-100.00,SSE,150,2.0,4.0,-999,-99.99,,,-99.99,,2013-01-13 23:33:00,
2013-01-13 15:43:00,31.0,-99.9,-100.00,SSE,150,2.0,4.0,-999,-99.99,,,-99.99,,2013-01-13 23:43:00,
2013-01-13 15:53:00,31.0,-99.9,-100.00,SE,141,2.0,4.0,-999,-99.99,,,-99.99,,2013-01-13 23:53:00,
2013-01-13 16:33:00,30.0,-99.9,-100.00,East,86,1.0,2.0,-999,-99.99,,,-99.99,,2013-01-14 00:33:00,
2013-01-13 16:43:00,30.0,-99.9,-100.00,East,86,1.0,2.0,-999,-99.99,,,-99.99,,2013-01-14 00:43:00,
2013-01-13 16:53:00,30.0,-99.9,-100.00,SSE,155,0.0,2.0,-999,-99.99,,,-99.99,,2013-01-14 00:53:00,
2013-01-13 17:03:00,29.0,-99.9,-100.00,SE,137,1.0,3.0,-999,-99.99,,,-99.99,,2013-01-14 01:03:00,
2013-01-13 17:13:00,29.0,-99.9,-100.00,SE,137,1.0,3.0,-999,-99.99,,,-99.99,,2013-01-14 01:13:00,
2013-01-13 17:23:00,30.0,-99.9,-100.00,SSE,148,1.0,2.0,-999,-99.99,,,-99.99,,2013-01-14 01:23:00,
2013-01-13 17:33:00,30.0,-99.9,-100.00,South,181,0.0,2.0,-999,-99.99,,,-99.99,,2013-01-14 01:33:00,
2013-01-13 17:43:00,30.0,-99.9,-100.00,South,181,0.0,2.0,-999,-99.99,,,-99.99,,2013-01-14 01:43:00,
2013-01-13 17:53:00,30.0,-99.9,-100.00,South,181,0.0,2.0,-999,-99.99,,,-99.99,,2013-01-14 01:53:00,
2013-01-13 18:33:00,29.0,-99.9,-100.00,SW,217,2.0,3.0,-999,-99.99,,,-99.99,,2013-01-14 02:33:00,
2013-01-13 18:43:00,29.0,-99.9,-100.00,SW,217,2.0,3.0,-999,-99.99,,,-99.99,,2013-01-14 02:43:00,
2013-01-13 18:53:00,29.0,-99.9,-100.00,SW,217,2.0,3.0,-999,-99.99,,,-99.99,,2013-01-14 02:53:00,
2013-01-13 19:33:00,29.0,-99.9,-100.00,East,88,1.0,2.0,-999,-99.99,,,-99.99,,2013-01-14 03:33:00,
2013-01-13 19:43:00,29.0,-99.9,-100.00,East,88,1.0,2.0,-999,-99.99,,,-99.99,,2013-01-14 03:43:00,
2013-01-13 19:53:00,29.0,-99.9,-100.00,East,88,1.0,2.0,-999,-99.99,,,-99.99,,2013-01-14 03:53:00,
2013-01-13 20:32:00,27.0,-99.9,-100.00,South,171,1.0,2.0,-999,-99.99,,,-99.99,,2013-01-14 04:32:00,
2013-01-13 20:42:00,27.0,-99.9,-100.00,South,171,1.0,2.0,-999,-99.99,,,-99.99,,2013-01-14 04:42:00,
2013-01-13 20:53:00,27.0,-99.9,-100.00,South,171,1.0,2.0,-999,-99.99,,,-99.99,,2013-01-14 04:53:00,
2013-01-13 21:33:00,25.0,-99.9,-100.00,South,184,0.0,1.0,-999,-99.99,,,-99.99,,2013-01-14 05:33:00,
2013-01-13 21:43:00,25.0,-99.9,-100.00,South,184,0.0,1.0,-999,-99.99,,,-99.99,,2013-01-14 05:43:00,
2013-01-13 21:53:00,25.0,-99.9,-100.00,South,184,0.0,1.0,-999,-99.99,,,-99.99,,2013-01-14 05:53:00,
2013-01-13 22:03:00,25.0,-99.9,-100.00,SSE,164,0.0,1.0,-999,-99.99,,,-99.99,,2013-01-14 06:03:00,
2013-01-13 22:12:00,25.0,-99.9,-100.00,SSE,164,0.0,1.0,-999,-99.99,,,-99.99,,2013-01-14 06:12:00,
2013-01-13 22:33:00,25.0,-99.9,-100.00,SW,221,1.0,2.0,-999,-99.99,,,-99.99,,2013-01-14 06:33:00,
2013-01-13 22:43:00,25.0,-99.9,-100.00,SW,221,1.0,2.0,-999,-99.99,,,-99.99,,2013-01-14 06:43:00,
2013-01-13 22:53:00,25.0,-99.9,-100.00,SW,221,1.0,2.0,-999,-99.99,,,-99.99,,2013-01-14 06:53:00,
2013-01-13 23:53:00,23.0,-99.9,-100.00,WSW,252,2.0,2.0,-999,-99.99,,,-99.99,,2013-01-14 07:53:00,